Location: Albuquerque Trailhead
(34.7934°N, 106.3736°W)
Time: 00:42:58
(UTC+00:00)

USA 229 - Pass Details

Date: 20 June 2021
Orbit: 956 x 1256 km, 63.5° (Epoch: 25 July)

Event Time Altitude Azimuth Distance (km) Brightness Sun altitude
Exits shadow 07:32:09 63° 299° (WNW) 1,104 3.7 -31.5°
Maximum altitude 07:32:15 63° 304° (NW) 1,104 3.7 -31.5°
Drops below altitude 10° 07:38:52 10° 25° (NNE) 2,857 6.8 -31.3°
Sets 07:41:38 0° 29° (NNE) 3,857 7.6 -31.2°
